Location: *
(37.9500°N, 27.3666°E)
Time: 14:29:27
(UTC+00:00)

Okean 1-7 Rocket - Pass Details

Date: 24 October 2021
Orbit: 617 x 648 km, 82.5° (Epoch: 06 December)

Event Time Altitude Azimuth Distance (km) Brightness Sun altitude
Rises 16:16:30 0° 354° (N) 2,908 7.0 -11.6°
Reaches altitude 10° 16:18:44 10° 355° (N) 2,001 6.2 -12.0°
Maximum altitude 16:23:11 80° 83° (E) 642 3.5 -12.9°
Drops below altitude 10° 16:27:37 10° 170° (S) 2,005 6.1 -13.8°
Sets 16:29:52 0° 172° (S) 2,913 7.0 -14.2°
